DW6222 Weather Reports


time (UTC)temp
F
wind
direction
speed
knots
gust
knots
rain 1hr
in
rain 24hr
in
rain mn
in
humidity
%
barometer
mb
20260510174544 42 325 12.2 17.4 0.00 0.00 0.00 64 1019.0
20260510173046 42 360 9.6 15.6 0.00 0.00 0.00 67 1018.9
20260510171540 42 360 10.4 13.0 0.00 0.00 0.00 68 1018.9
20260510170038 42 342 5.2 9.6 0.00 0.00 0.00 64 1018.7
20260510164540 43 355 5.2 8.7 0.00 0.00 0.00 62 1018.6
20260510163047 42 331 4.3 13.0 0.00 0.00 0.00 63 1018.5
20260510161543 42 360 7.8 12.2 0.00 0.00 0.00 62 1018.2
20260510160043 42 50 4.3 7.0 0.00 0.00 0.00 66 1018.2
20260510154540 41 349 6.1 12.2 0.00 0.00 0.00 68 1017.9
20260510153039 42 346 4.3 9.6 0.00 0.00 0.00 72 1017.9
20260510151540 41 355 7.0 12.2 0.00 0.00 0.00 74 1017.7
20260510150053 41 355 8.7 11.3 0.00 0.00 0.00 71 1017.5
20260510144603 41 333 6.1 10.4 0.00 0.00 0.00 75 1017.3
20260510143056 41 342 4.3 10.4 0.00 0.00 0.00 76 1017.1
20260510141544 41 321 7.8 10.4 0.00 0.00 0.00 75 1017.1
20260510140042 41 340 8.7 11.3 0.00 0.00 0.00 76 1016.8
20260510134602 41 5 3.5 8.7 0.00 0.00 0.00 75 1016.6
20260510133043 41 355 5.2 10.4 0.00 0.00 0.00 76 1016.5
20260510131546 40 355 4.3 11.3 0.00 0.00 0.00 78 1016.5
20260510130044 40 348 4.3 8.7 0.00 0.00 0.00 78 1016.3
20260510124543 39 320 7.0 11.3 0.00 0.00 0.00 79 1016.2
20260510123045 39 305 3.5 7.0 0.00 0.00 0.00 82 1015.9
20260510121545 39 308 5.2 7.0 0.00 0.00 0.00 80 1015.5
20260510120046 39 321 4.3 5.2 0.00 0.00 0.00 80 1015.3
20260510114543 39 350 3.5 7.8 0.00 0.00 0.00 80 1015.2
20260510113043 39 352 6.1 8.7 0.00 0.00 0.00 79 1015.0
20260510111551 40 342 8.7 12.2 0.00 0.00 0.00 78 1014.9
20260510110045 40 346 8.7 12.2 0.00 0.00 0.00 77 1014.7
20260510104604 40 0 0.0 3.5 0.00 0.00 0.00 75 1014.3
20260510103044 39 24 1.7 6.1 0.00 0.00 0.00 76 1014.2
20260510101543 38 80 0.9 2.6 0.00 0.00 0.00 82 1013.8
20260510100040 38 80 0.0 0.0 0.00 0.00 0.00 82 1013.5
20260510094545 38 0 0.0 2.6 0.00 0.00 0.00 82 1013.3
20260510093044 38 0 0.0 2.6 0.00 0.00 0.00 82 1013.2
20260510091543 38 80 1.7 3.5 0.00 0.00 0.00 81 1013.1
20260510090053 38 223 0.0 1.7 0.00 0.00 0.00 81 1013.0
20260510084542 38 11 0.9 3.5 0.00 0.00 0.00 81 1012.9
20260510083039 38 0 0.9 2.6 0.00 0.00 0.00 81 1012.8
20260510081542 39 0 0.0 5.2 0.00 0.00 0.00 79 1012.6
20260510080046 39 282 3.5 6.1 0.00 0.00 0.00 77 1012.5
20260510074543 41 0 0.9 2.6 0.00 0.00 0.00 71 1012.3
20260510073044 41 39 0.9 2.6 0.00 0.00 0.00 71 1012.3
20260510071542 40 11 1.7 3.5 0.00 0.00 0.00 72 1012.3
20260510070043 39 0 0.0 1.7 0.00 0.00 0.00 76 1012.1
20260510064539 39 302 1.7 2.6 0.00 0.00 0.00 75 1012.1
20260510063045 40 298 2.6 5.2 0.00 0.00 0.00 73 1012.2
20260510061543 41 254 3.5 5.2 0.00 0.00 0.00 70 1012.2
20260510060051 41 0 0.0 0.0 0.00 0.00 0.00 68 1012.1
20260510054541 41 0 0.0 0.9 0.00 0.00 0.00 67 1012.2
20260510053041 41 33 0.0 3.5 0.00 0.00 0.00 66 1011.9
20260510051611 41 51 2.6 6.1 0.00 0.00 0.00 68 1011.9
20260510050044 40 30 3.5 7.0 0.00 0.00 0.00 70 1011.9
20260510044544 41 314 7.0 8.7 0.00 0.00 0.00 68 1011.8
20260510043107 41 294 7.0 8.7 0.00 0.00 0.00 68 1011.7
20260510041549 42 298 8.7 10.4 0.00 0.00 0.00 66 1011.7
20260510040051 42 293 7.0 8.7 0.00 0.00 0.00 65 1011.5
20260510034550 42 284 7.8 9.6 0.00 0.00 0.00 63 1011.5
20260510033050 42 284 7.0 7.8 0.00 0.00 0.00 66 1011.2
20260510031613 43 299 7.0 8.7 0.00 0.00 0.00 64 1011.2
20260510030045 43 296 7.0 8.7 0.00 0.00 0.00 66 1011.0
20260510024541 42 313 4.3 7.0 0.00 0.00 0.00 68 1010.9
20260510023053 43 346 2.6 7.8 0.00 0.00 0.00 67 1010.8
20260510021546 44 334 2.6 6.1 0.00 0.00 0.00 65 1010.6
20260510020043 44 296 4.3 7.8 0.00 0.00 0.00 63 1010.5
20260510014544 45 323 6.1 8.7 0.00 0.00 0.00 60 1010.2
20260510013042 46 328 7.8 10.4 0.00 0.00 0.00 53 1009.9
20260510011553 47 335 10.4 13.9 0.00 0.00 0.00 54 1009.8
20260510010101 46 340 7.0 10.4 0.00 0.00 0.00 55 1009.6
20260510004538 46 288 1.7 3.5 0.00 0.00 0.00 56 1009.3
20260510003044 48 0 0.9 3.5 0.00 0.00 0.00 55 1009.1
20260510001543 47 241 2.6 4.3 0.00 0.00 0.00 53 1009.0
20260510000048 47 215 2.6 4.3 0.00 0.00 0.00 59 1008.8
20260509234540 48 240 2.6 3.5 0.00 0.00 0.00 54 1008.7
20260509233037 49 0 0.9 2.6 0.00 0.00 0.00 46 1008.5
20260509231552 49 29 1.7 5.2 0.00 0.00 0.00 46 1008.3
20260509230045 49 74 2.6 4.3 0.00 0.00 0.00 45 1008.1
20260509224542 49 9 1.7 4.3 0.00 0.00 0.00 47 1008.1
20260509223043 49 26 3.5 8.7 0.00 0.00 0.00 46 1008.1
20260509221542 48 0 0.9 4.3 0.00 0.00 0.00 47 1008.0
20260509220044 48 0 0.0 3.5 0.00 0.00 0.00 48 1007.8
20260509214541 47 337 3.5 7.0 0.00 0.00 0.00 48 1007.8
20260509213059 47 0 0.9 7.8 0.00 0.00 0.00 52 1007.7
20260509211608 47 30 5.2 11.3 0.00 0.00 0.00 50 1007.7
20260509210044 47 325 6.1 15.6 0.00 0.00 0.00 50 1007.5
20260509204557 47 340 13.9 18.2 0.00 0.00 0.00 49 1007.6
20260509203049 46 26 9.6 19.1 0.00 0.00 0.00 51 1007.4
20260509201546 46 346 15.6 20.9 0.00 0.00 0.00 49 1007.3
20260509200046 46 342 14.8 17.4 0.00 0.00 0.00 50 1007.0
20260509194546 46 5 12.2 21.7 0.00 0.00 0.00 49 1006.8
20260509193046 46 341 10.4 22.6 0.00 0.00 0.00 50 1006.8
20260509191544 46 326 13.9 21.7 0.00 0.00 0.00 51 1006.7
20260509190049 46 336 15.6 23.5 0.00 0.00 0.00 52 1006.6
20260509184547 45 349 20.9 26.9 0.00 0.00 0.00 52 1006.5
20260509183041 46 340 14.8 25.2 0.00 0.00 0.00 51 1006.0
20260509181545 46 342 21.7 26.9 0.00 0.00 0.00 55 1005.9
20260509180041 46 338 18.2 24.3 0.00 0.00 0.00 56 1005.4